This is the latest recevied weather packets stored in our database for station/object N6SPP. If no packets are shown the sender has not sent any weather packets the latest 10 day(s).
| Time | Temp. | Humidity | Pressure | Rain* | Wind** | Luminosity | Snow |
|---|---|---|---|---|---|---|---|
| 1788146308 | 71° F | 52% | 759.9 mmHg | 0 in | - | 0 W/m² | - |
| 1788146006 | 71° F | 52% | 759.8 mmHg | 0 in | - | 0 W/m² | - |
| 1788145701 | 71° F | 51% | 759.8 mmHg | 0 in | - | 0 W/m² | - |
| 1788145400 | 71° F | 50% | 759.9 mmHg | 0 in | - | 0 W/m² | - |
| 1788145094 | 72° F | 50% | 759.8 mmHg | 0 in | - | 0 W/m² | - |
| 1788144794 | 72° F | 49% | 759.7 mmHg | 0 in | - | 0 W/m² | - |
| 1788144490 | 72° F | 48% | 759.7 mmHg | 0 in | - | 1 W/m² | - |
| 1788144189 | 72° F | 47% | 759.7 mmHg | 0 in | - | 3 W/m² | - |
| 1788143888 | 73° F | 47% | 759.6 mmHg | 0 in | - | 5 W/m² | - |
| 1788143586 | 73° F | 47% | 759.7 mmHg | 0 in | - | 7 W/m² | - |
| 1788143282 | 73° F | 46% | 759.7 mmHg | 0 in | - | 10 W/m² | - |
| 1788142981 | 74° F | 45% | 759.7 mmHg | 0 in | - | 13 W/m² | - |
| 1788142675 | 75° F | 45% | 759.7 mmHg | 0 in | - | 16 W/m² | - |
| 1788142370 | 76° F | 43% | 759.4 mmHg | 0 in | - | 20 W/m² | - |
| 1788142067 | 76° F | 42% | 759.6 mmHg | 0 in | - | 22 W/m² | - |
| 1788141765 | 77° F | 42% | 759.5 mmHg | 0 in | - | 24 W/m² | - |
| 1788141461 | 77° F | 42% | 759.7 mmHg | 0 in | - | 26 W/m² | - |
| 1788141157 | 78° F | 41% | 759.5 mmHg | 0 in | - | 29 W/m² | - |
| 1788140851 | 79° F | 40% | 759.5 mmHg | 0 in | - | 29 W/m² | - |
| 1788140546 | 79° F | 39% | 759.4 mmHg | 0 in | - | 32 W/m² | - |
| 1788140243 | 80° F | 39% | 759.4 mmHg | 0 in | - | 41 W/m² | - |
| 1788139941 | 80° F | 39% | 759.4 mmHg | 0 in | - | 41 W/m² | - |
| 1788139637 | 81° F | 38% | 759.6 mmHg | 0 in | - | 37 W/m² | - |
| 1788139332 | 80° F | 37% | 759.4 mmHg | 0 in | - | 59 W/m² | - |
| 1788139031 | 81° F | 36% | 759.5 mmHg | 0 in | - | 68 W/m² | - |
* Rain latest hour (hover to see other rain measurements)
** Current wind speed in m/s (hover to see current wind gust speed)